Regional Weather Roundup
Issued by NWS

Home | Current Version | Previous Version | Graphics & Text | Print | Product List | Glossary On
Versions: 1 2 3 4 5 6 7 8 9 10 11 12 13 14 15 16 17 18 19 20 21 22 23 24 25 26 27 28 29 30 31 32 33 34 35 36 37 38 39 40 41 42 43 44 45 46 47 48 49 50
000
ASUS45 KCYS 070110
RWRWY

WYOMING REGIONAL WEATHER ROUNDUP
NATIONAL WEATHER SERVICE CHEYENNE WY
600 PM MST SAT FEB 06 2016

NOTE:  "FAIR" INDICATES FEW OR NO CLOUDS BELOW 12,000 FEET
WITH NO SIGNIFICANT WEATHER AND/OR OBSTRUCTIONS TO VISIBILITY.

WYZ001-070200-
YELLOWSTONE NATIONAL PARK

CITY           SKY/WX    TMP DP  RH WIND       PRES   REMARKS
LK YELLOWSTONE   N/A     21  15  78 CALM      30.25R
W YELLOWSTONE  NOT AVBL

$$
WYZ002>013-054>058-071-098>099-070200-
NORTHERN WYOMING

CITY           SKY/WX    TMP DP  RH WIND       PRES   REMARKS
JACKSON        CLEAR     30  21  69 SW16G25   30.29S WCI  19
CODY           FAIR      41  16  36 SW17G28   30.08S
GREYBULL       FAIR      41  22  46 NW17      30.07R
WORLAND        FAIR      33  26  75 E9        30.08R WCI  25
SHERIDAN       CLOUDY    39  25  56 N10       30.04R WCI  32
BUFFALO        FAIR      35  24  64 N20G32    30.03R WCI  24
GILLETTE       FAIR      36  21  54 NW16      30.03R WCI  26
HULETT         CLOUDY    39  19  45 W15G26    29.99F WCI  31
NEWCASTLE      FAIR      37  23  56 NW16G25   30.01R WCI  28

$$
WYZ014>020-022>026-101>103-070200-
CENTRAL WYOMING

CITY           SKY/WX    TMP DP  RH WIND       PRES   REMARKS
BIG PINEY      FAIR      27  16  63 N9        30.30R WCI  18
PINEDALE       MOCLDY    27  19  74 NW13      30.29S WCI  16
DUBOIS         MOCLDY    30  18  59 NW14G22   30.19S WCI  20
LANDER         FAIR      33  20  58 E9        30.10R WCI  25
RIVERTON       FAIR      41  18  39 NW17      30.13R
CASPER         FAIR      33  22  63 SW31G40   30.10R WCI  19
DOUGLAS        FAIR      38  22  52 W26G36      N/A  WCI  26

$$
WYZ021-027>030-104>119-070200-
SOUTHERN WYOMING

CITY           SKY/WX    TMP DP  RH WIND       PRES   REMARKS
EVANSTON       FAIR      27  13  55 SW3       30.38R
FORT BRIDGER   CLEAR     28  19  69 W16       30.38R WCI  17
ROCK SPRINGS   FAIR      30  18  60 W35G48    30.27R WCI  14
DIXON          MOCLDY    23  13  66 W7        30.38S WCI  15
RAWLINS        FAIR      25  16  68 W30G39    30.21R WCI   8
SARATOGA       FAIR      30  19  64 SW25G31   30.24R WCI  16
LARAMIE        FAIR      32  17  54 W23G35    30.14R WCI  19
CHEYENNE       FAIR      37  18  46 W14G24    30.07S WCI  28
TORRINGTON     FAIR      40  21  46 W22G32    30.00F WCI  30
PINE BLUFFS    FAIR      37  27  65 W16       30.04F WCI  28

$$



USA.gov is the U.S. government's official web portal to all federal, state and local government web resources and services.